GSAT0221 (PRN E15)

Last updated on Nov. 22, 2019, 4:20 a.m. UTC

1 43564U 18060A   19325.34753830 -.00000076  00000-0  00000+0 0  9993
2 43564  56.6720  46.7803 0005165 255.5324 104.4337  1.70476167  8268
UTC
Height (km)
Latitude
Longitude
Inclination
Orbital Period
UTC large
Height (km)
Speed (km/s)
/
Latitude / Longitude
Inclination (degrees)
Orbital Period (minutes)
Azimuth
Elevation
Range (km)
Doppler Factor
iOS Compass Heading
iOS Angle

Next 30 passes for location: Hong Kong

Rise time Rise Azimuth (degrees) Set time Set Azimuth (degrees) Duration Max altitude (degrees)

No matching passes for this satellites